Greensboro Piedmont-Triad Airport (GSO)

 

Airport Diagram
Current Weather/Forecast (VFR Conditions)
METAR KGSO 050154Z 00000KT 10SM FEW045 BKN140 BKN250 26/21 A3000 RMK AO2 SLP147 T02560211
TAF KGSO 042340Z 0500/0524 VRB05KT P6SM VCSH SCT050 BKN150 BKN250 FM051000 VRB03KT P6SM SCT250 TEMPO 0510/0513 6SM BR SCT003

All Charts
General
Chart Name Download
AIRPORT DIAGRAM
TAKEOFF MINIMUMS
ALTERNATE MINIMUMS
HOT SPOT

Departures
Chart Name Download
QUAKER SEVEN
TRIAD NINE
TRSHA ONE (RNAV)

Arrivals
Chart Name Download
BLOCC TWO
BROOK FOUR
HENBY THREE
TRAKS THREE (RNAV)

Approaches
Chart Name Download
ILS OR LOC RWY 05L
ILS OR LOC RWY 05R
ILS OR LOC RWY 23L
ILS OR LOC RWY 23R
ILS Y OR LOC/DME Y RWY 32
ILS Z OR LOC/DME Z RWY 32
ILS RWY 23L (CAT II)
ILS RWY 05L (CAT II - III)
ILS RWY 05R (SA CAT II)
RNAV (GPS) RWY 05L
RNAV (GPS) RWY 05R
RNAV (GPS) RWY 14
RNAV (GPS) RWY 23L
RNAV (GPS) RWY 23R
RNAV (GPS) RWY 32
VOR/DME RWY 23L


Inbound Traffic (Arrivals)

No inbound traffic.


Outbound Traffic (Departures)

No outbound traffic.